�N����,����,����,����,����,�C��,���x,�~����,�S�V����,�ő�u�ԕ���,,,,,
,,,,,,,,,����,����,����,�N��,,
yyyy/mm/dd,hh:mm:ss,(16),16����,m/s,��,%,mm,KW/�u,(16),16����,m/s,Time,,
2018/3/1,1:00:00,-12.5,#N/A,91.5,0,0,,,,,,,,
2018/3/1,2:00:00,-11.2,#N/A,92.4,0,0,,,,,,,,
2018/3/1,3:00:00,-11.5,#N/A,91.6,0,0,,,,,,,,
2018/3/1,4:00:00,-10.7,#N/A,89.8,0,0,,,,,,,,
2018/3/1,5:00:00,-7.6,#N/A,91.9,0,0,,,,,,,,
2018/3/1,6:00:00,-7,#N/A,85.5,0,0,,,,,,,,
2018/3/1,7:00:00,-6.6,#N/A,82.6,0,0.02,,,,,,,,
2018/3/1,8:00:00,-5.8,#N/A,83,0,0.05,,,,,,,,
2018/3/1,9:00:00,-4.9,#N/A,83.8,0,0.1,,,,,,,,
2018/3/1,10:00:00,-4.3,#N/A,83.7,0,0.14,,,,,,,,
2018/3/1,11:00:00,-0.3,#N/A,95.1,0,0.08,,,,,,,,
2018/3/1,12:00:00,0.2,�k,96.8,0,0.1,,,,,,,,
2018/3/1,13:00:00,0.3,�k,97.6,0,0.06,,,,,,,,
2018/3/1,14:00:00,0.3,�k,98.1,0.5,0.06,,,,,,,,
2018/3/1,15:00:00,0.3,�k,98.2,1.5,0.05,,,,,,,,
2018/3/1,16:00:00,0.2,�k,98.5,1.5,0.03,,,,,,,,
2018/3/1,17:00:00,0.2,�k,99.1,1.5,0.01,,,,,,,,
2018/3/1,18:00:00,-0.1,#N/A,99.6,1,0,,,,,,,,
2018/3/1,19:00:00,-0.1,#N/A,99.9,1,0,,,,,,,,
2018/3/1,20:00:00,-0.1,#N/A,100,0.5,0,,,,,,,,
2018/3/1,21:00:00,0.2,�k,100,1.5,0,,,,,,,,
2018/3/1,22:00:00,0.3,�k,100,1.5,0,,,,,,,,
2018/3/1,23:00:00,0.2,�k,100,0.5,0,,,,,,,,
2018/3/1,0:00:00,-0.2,#N/A,100,0.5,0,,,,,,,,
2018/3/2,1:00:00,-0.6,#N/A,100,0.5,0,,,,,,,,
2018/3/2,2:00:00,-0.7,#N/A,100,0.5,0,,,,,,,,
2018/3/2,3:00:00,-2.6,#N/A,100,1,0,,,,,,,,
2018/3/2,4:00:00,-3.9,#N/A,100,0.5,0,,,,,,,,
2018/3/2,5:00:00,-2.7,#N/A,100,0.5,0,,,,,,,,
2018/3/2,6:00:00,0.6,�k,100,0.5,0,,,,,,,,
2018/3/2,7:00:00,0.9,�k,100,0.5,0.06,,,,,,,,
2018/3/2,8:00:00,0.8,�k,100,1,0.16,,,,,,,,
2018/3/2,9:00:00,0.6,�k,100,1,0.16,,,,,,,,
2018/3/2,10:00:00,1.3,�k�k��,100,0.5,0.24,,,,,,,,
2018/3/2,11:00:00,1.3,�k�k��,98.8,1.5,0.45,,,,,,,,
2018/3/2,12:00:00,1.6,�k�k��,84.4,1,0.54,,,,,,,,
2018/3/2,13:00:00,1.2,�k�k��,80.3,1.5,0.63,,,,,,,,
2018/3/2,14:00:00,1.1,�k�k��,85.2,0.5,0.58,,,,,,,,
2018/3/2,15:00:00,1.3,�k�k��,82.1,0,0.22,,,,,,,,
2018/3/2,16:00:00,1.1,�k�k��,75.4,0,0.11,,,,,,,,
2018/3/2,17:00:00,-0.2,#N/A,86,0,0.08,,,,,,,,
2018/3/2,18:00:00,-0.9,#N/A,85,0.5,0.01,,,,,,,,
2018/3/2,19:00:00,-1.5,#N/A,83.1,0,0,,,,,,,,
2018/3/2,20:00:00,-2.1,#N/A,83.6,0,0,,,,,,,,
2018/3/2,21:00:00,-2.5,#N/A,85,0,0,,,,,,,,
2018/3/2,22:00:00,-3.2,#N/A,85.8,0,0,,,,,,,,
2018/3/2,23:00:00,-3.3,#N/A,83.1,0,0,,,,,,,,
2018/3/2,0:00:00,-3.3,#N/A,86,0,0,,,,,,,,
2018/3/3,1:00:00,-4.4,#N/A,84.2,0,0,,,,,,,,
2018/3/3,2:00:00,-4.4,#N/A,84.5,0,0,,,,,,,,
2018/3/3,3:00:00,-6.5,#N/A,84.5,0,0,,,,,,,,
2018/3/3,4:00:00,-9.7,#N/A,86.7,0,0,,,,,,,,
2018/3/3,5:00:00,-11.3,#N/A,88.6,0,0,,,,,,,,
2018/3/3,6:00:00,-14.6,#N/A,89.3,0,0.01,,,,,,,,
2018/3/3,7:00:00,-13.7,#N/A,92.5,0,0.09,,,,,,,,
2018/3/3,8:00:00,-2.2,#N/A,88.1,0,0.29,,,,,,,,
2018/3/3,9:00:00,-0.1,#N/A,71.2,0,0.49,,,,,,,,
2018/3/3,10:00:00,0.1,�k,49.8,0,0.64,,,,,,,,
2018/3/3,11:00:00,0.4,�k,47.3,0,0.75,,,,,,,,
2018/3/3,12:00:00,1.3,�k�k��,59.3,0,0.8,,,,,,,,
2018/3/3,13:00:00,1.8,�k�k��,50.7,0,0.79,,,,,,,,
2018/3/3,14:00:00,2.1,�k��,57.2,0,0.69,,,,,,,,
2018/3/3,15:00:00,1.4,�k�k��,50.3,0,0.55,,,,,,,,
2018/3/3,16:00:00,1.3,�k�k��,59.3,0,0.36,,,,,,,,
2018/3/3,17:00:00,-1,#N/A,75.5,0,0.12,,,,,,,,
2018/3/3,18:00:00,-4.1,#N/A,80.5,0,0.01,,,,,,,,
2018/3/3,19:00:00,-6.7,#N/A,86.7,0,0,,,,,,,,
2018/3/3,20:00:00,-6.6,#N/A,90.5,0,0,,,,,,,,
2018/3/3,21:00:00,-6,#N/A,91.7,0,0,,,,,,,,
2018/3/3,22:00:00,-6.3,#N/A,93.8,0,0,,,,,,,,
2018/3/3,23:00:00,-6.7,#N/A,94.1,0,0,,,,,,,,
2018/3/3,0:00:00,-6.2,#N/A,92.8,0,0,,,,,,,,
2018/3/4,1:00:00,2.4,�k��,96.4,0,0,,,,,,,,
2018/3/4,2:00:00,2.7,�k��,91.5,0,0,,,,,,,,
2018/3/4,3:00:00,2.3,�k��,88.6,0,0,,,,,,,,
2018/3/4,4:00:00,2.8,�k��,89.3,0,0,,,,,,,,
2018/3/4,5:00:00,4.6,��,81.3,0,0,,,,,,,,
2018/3/4,6:00:00,5,���쓌,77.2,0,0,,,,,,,,
2018/3/4,7:00:00,5.1,���쓌,73.4,0,0.03,,,,,,,,
2018/3/4,8:00:00,5.7,���쓌,66.2,0,0.11,,,,,,,,
2018/3/4,9:00:00,5.7,���쓌,62.9,0,0.25,,,,,,,,
2018/3/4,10:00:00,7.3,��쓌,50.7,0,0.59,,,,,,,,
2018/3/4,11:00:00,7.9,��쓌,48.7,0,0.72,,,,,,,,
2018/3/4,12:00:00,6.6,�쓌,51.7,0,0.79,,,,,,,,
2018/3/4,13:00:00,6.7,�쓌,55.2,0,0.71,,,,,,,,
2018/3/4,14:00:00,6.6,�쓌,60.1,0,0.56,,,,,,,,
2018/3/4,15:00:00,7.2,��쓌,63.4,0,0.36,,,,,,,,
2018/3/4,16:00:00,6.6,�쓌,70,0,0.13,,,,,,,,
2018/3/4,17:00:00,5.9,���쓌,69.3,0,0.07,,,,,,,,
2018/3/4,18:00:00,6.3,�쓌,66.2,0,0.01,,,,,,,,
2018/3/4,19:00:00,6.7,�쓌,57.8,0,0,,,,,,,,
2018/3/4,20:00:00,6.1,�쓌,58.5,0,0,,,,,,,,
2018/3/4,21:00:00,5.9,���쓌,50.5,0,0,,,,,,,,
2018/3/4,22:00:00,4.2,��,54.4,0,0,,,,,,,,
2018/3/4,23:00:00,2.4,�k��,53.3,0,0,,,,,,,,
2018/3/4,0:00:00,1.3,�k�k��,55.4,0,0,,,,,,,,
2018/3/5,1:00:00,-2.4,#N/A,64,0,0,,,,,,,,
2018/3/5,2:00:00,-1.7,#N/A,62,0,0,,,,,,,,
2018/3/5,3:00:00,-7.3,#N/A,65.3,0,0,,,,,,,,
2018/3/5,4:00:00,-7.3,#N/A,76.3,0,0,,,,,,,,
2018/3/5,5:00:00,-5.1,#N/A,80.3,0,0,,,,,,,,
2018/3/5,6:00:00,-4.1,#N/A,76.5,0,0,,,,,,,,
2018/3/5,7:00:00,-2.1,#N/A,71.6,0,0.03,,,,,,,,
2018/3/5,8:00:00,-1.5,#N/A,66,0,0.06,,,,,,,,
2018/3/5,9:00:00,-0.5,#N/A,65.2,0,0.1,,,,,,,,
2018/3/5,10:00:00,0.3,�k,63.1,0,0.15,,,,,,,,
2018/3/5,11:00:00,-1.4,#N/A,76.3,0,0.16,,,,,,,,
2018/3/5,12:00:00,-1.2,#N/A,82.1,0,0.16,,,,,,,,
2018/3/5,13:00:00,-1.5,#N/A,80.2,0,0.16,,,,,,,,
2018/3/5,14:00:00,-1.2,#N/A,80.7,1,0.18,,,,,,,,
2018/3/5,15:00:00,-1.5,#N/A,78.2,1,0.15,,,,,,,,
2018/3/5,16:00:00,-1.6,#N/A,80.4,1,0.07,,,,,,,,
2018/3/5,17:00:00,-1.9,#N/A,83.4,0,0.02,,,,,,,,
2018/3/5,18:00:00,-2.1,#N/A,88.6,0.5,0.01,,,,,,,,
2018/3/5,19:00:00,-2.1,#N/A,92,0,0,,,,,,,,
2018/3/5,20:00:00,-2,#N/A,93.2,0,0,,,,,,,,
2018/3/5,21:00:00,-1.8,#N/A,93.2,0,0,,,,,,,,
2018/3/5,22:00:00,-1.8,#N/A,92.1,0,0,,,,,,,,
2018/3/5,23:00:00,-1.8,#N/A,91.2,0,0,,,,,,,,
2018/3/5,0:00:00,-2.1,#N/A,89.7,0.5,0,,,,,,,,
2018/3/6,1:00:00,-2,#N/A,88.3,0,0,,,,,,,,
2018/3/6,2:00:00,-2.7,#N/A,78.6,0,0,,,,,,,,
2018/3/6,3:00:00,-3.1,#N/A,73.6,0,0,,,,,,,,
2018/3/6,4:00:00,-3.6,#N/A,73.2,0,0,,,,,,,,
2018/3/6,5:00:00,-4.2,#N/A,69.2,0,0,,,,,,,,
2018/3/6,6:00:00,-4.1,#N/A,61.3,0,0.01,,,,,,,,
2018/3/6,7:00:00,-4.6,#N/A,63.2,0,0.06,,,,,,,,
2018/3/6,8:00:00,-3.9,#N/A,53.5,0,0.17,,,,,,,,
2018/3/6,9:00:00,-3.2,#N/A,48.7,0,0.28,,,,,,,,
2018/3/6,10:00:00,-2.9,#N/A,42.6,0,0.63,,,,,,,,
2018/3/6,11:00:00,-2.3,#N/A,32.6,0.5,0.8,,,,,,,,
2018/3/6,12:00:00,-1.1,#N/A,40.8,0.5,0.82,,,,,,,,
2018/3/6,13:00:00,0.2,�k,34.8,0.5,0.81,,,,,,,,
2018/3/6,14:00:00,-0.8,#N/A,28,0,0.73,,,,,,,,
2018/3/6,15:00:00,-1.2,#N/A,44.6,0,0.59,,,,,,,,
2018/3/6,16:00:00,-1.6,#N/A,49,0,0.44,,,,,,,,
2018/3/6,17:00:00,-3.6,#N/A,68.3,0,0.08,,,,,,,,
2018/3/6,18:00:00,-4.7,#N/A,67.4,0,0.01,,,,,,,,
2018/3/6,19:00:00,-5.4,#N/A,64.9,0,0,,,,,,,,
2018/3/6,20:00:00,-10.4,#N/A,66.5,0,0,,,,,,,,
2018/3/6,21:00:00,-11.3,#N/A,77.1,0,0,,,,,,,,
2018/3/6,22:00:00,-13.9,#N/A,69.1,0,0,,,,,,,,
2018/3/6,23:00:00,-14.3,#N/A,81,0,0,,,,,,,,
2018/3/6,0:00:00,-16.9,#N/A,79.5,0,0,,,,,,,,
2018/3/7,1:00:00,-17.3,#N/A,78.9,0,0,,,,,,,,
2018/3/7,2:00:00,-19,#N/A,79.2,0,0,,,,,,,,
2018/3/7,3:00:00,-17.7,#N/A,81.6,0,0,,,,,,,,
2018/3/7,4:00:00,-17.5,#N/A,83.5,0,0,,,,,,,,
2018/3/7,5:00:00,-18.9,#N/A,79.3,0,0.01,,,,,,,,
2018/3/7,6:00:00,-17.3,#N/A,83.3,0,0.01,,,,,,,,
2018/3/7,7:00:00,-17.1,#N/A,76.9,0,0.12,,,,,,,,
2018/3/7,8:00:00,-9.4,#N/A,61.4,0,0.34,,,,,,,,
2018/3/7,9:00:00,-5.7,#N/A,36.1,0,0.56,,,,,,,,
2018/3/7,10:00:00,-1.3,#N/A,25.5,0,0.71,,,,,,,,
2018/3/7,11:00:00,-2.8,#N/A,13.5,0,0.81,,,,,,,,
2018/3/7,12:00:00,-2.5,#N/A,25.8,0,0.85,,,,,,,,
2018/3/7,13:00:00,-2.4,#N/A,29.5,0,0.82,,,,,,,,
2018/3/7,14:00:00,-2.5,#N/A,35.1,0,0.73,,,,,,,,
2018/3/7,15:00:00,-3,#N/A,37,0,0.59,,,,,,,,
2018/3/7,16:00:00,-3.3,#N/A,37.1,0,0.39,,,,,,,,
2018/3/7,17:00:00,-4.8,#N/A,44.4,0,0.17,,,,,,,,
2018/3/7,18:00:00,-10.7,#N/A,52.4,0,0.01,,,,,,,,
2018/3/7,19:00:00,-14.7,#N/A,57.6,0,0,,,,,,,,
2018/3/7,20:00:00,-10.6,#N/A,71.7,0,0,,,,,,,,
2018/3/7,21:00:00,-12.1,#N/A,70.9,0,0,,,,,,,,
2018/3/7,22:00:00,-8.8,#N/A,73.3,0,0,,,,,,,,
2018/3/7,23:00:00,-9.2,#N/A,72.2,0,0,,,,,,,,
2018/3/7,0:00:00,-8.8,#N/A,70.8,0,0,,,,,,,,
2018/3/8,1:00:00,-7.7,#N/A,63.1,0,0,,,,,,,,
2018/3/8,2:00:00,-7.7,#N/A,64.8,0,0,,,,,,,,
2018/3/8,3:00:00,-7.8,#N/A,67.2,0,0,,,,,,,,
2018/3/8,4:00:00,-10,#N/A,65.9,0,0,,,,,,,,
2018/3/8,5:00:00,-10.7,#N/A,66.6,0,0,,,,,,,,
2018/3/8,6:00:00,-8,#N/A,69.8,0,0.01,,,,,,,,
2018/3/8,7:00:00,-7.7,#N/A,64.1,0,0.06,,,,,,,,
2018/3/8,8:00:00,-6.2,#N/A,60.3,0,0.16,,,,,,,,
2018/3/8,9:00:00,-5,#N/A,57.7,0,0.15,,,,,,,,
2018/3/8,10:00:00,-4,#N/A,51,0,0.28,,,,,,,,
2018/3/8,11:00:00,-3.2,#N/A,44.1,0,0.36,,,,,,,,
2018/3/8,12:00:00,-2.3,#N/A,54.3,0,0.22,,,,,,,,
2018/3/8,13:00:00,-2.4,#N/A,50.4,0,0.19,,,,,,,,
2018/3/8,14:00:00,-2.4,#N/A,56.2,0,0.13,,,,,,,,
2018/3/8,15:00:00,-2.7,#N/A,62.1,0,0.07,,,,,,,,
2018/3/8,16:00:00,-3.4,#N/A,81.5,0,0.05,,,,,,,,
2018/3/8,17:00:00,-3.8,#N/A,90.1,0,0.03,,,,,,,,
2018/3/8,18:00:00,-3.6,#N/A,93,0,0.01,,,,,,,,
2018/3/8,19:00:00,-3.3,#N/A,94,0,0,,,,,,,,
2018/3/8,20:00:00,-3.4,#N/A,93.4,0,0,,,,,,,,
2018/3/8,21:00:00,-3.1,#N/A,93.9,0,0,,,,,,,,
2018/3/8,22:00:00,-1.6,#N/A,95.6,0,0,,,,,,,,
2018/3/8,23:00:00,-0.8,#N/A,94.3,0,0,,,,,,,,
2018/3/8,0:00:00,0.5,�k,95.9,5.5,0,,,,,,,,
2018/3/9,1:00:00,0.6,�k,96.6,8.5,0,,,,,,,,
2018/3/9,2:00:00,0.6,�k,97,8.5,0,,,,,,,,
2018/3/9,3:00:00,0.6,�k,97.2,8.5,0,,,,,,,,
2018/3/9,4:00:00,0.6,�k,97.3,10,0,,,,,,,,
2018/3/9,5:00:00,0.8,�k,97.5,10,0,,,,,,,,
2018/3/9,6:00:00,4,��,98.2,9.5,0,,,,,,,,
2018/3/9,7:00:00,5.6,���쓌,98.4,9,0.01,,,,,,,,
2018/3/9,8:00:00,5.7,���쓌,98.4,6.5,0.04,,,,,,,,
2018/3/9,9:00:00,5.6,���쓌,98.3,5,0.04,,,,,,,,
2018/3/9,10:00:00,4.8,��,97.9,6.5,0.06,,,,,,,,
2018/3/9,11:00:00,5.3,���쓌,97.7,6,0.07,,,,,,,,
2018/3/9,12:00:00,7.1,��쓌,98.1,11,0.06,,,,,,,,
2018/3/9,13:00:00,5.9,���쓌,91.1,0.5,0.4,,,,,,,,
2018/3/9,14:00:00,3.8,���k��,80.6,0,0.25,,,,,,,,
2018/3/9,15:00:00,4.2,��,83.9,0,0.12,,,,,,,,
2018/3/9,16:00:00,2.5,�k��,83.2,0,0.09,,,,,,,,
2018/3/9,17:00:00,2.8,�k��,89.9,0,0.04,,,,,,,,
2018/3/9,18:00:00,5,���쓌,93,0,0.01,,,,,,,,
2018/3/9,19:00:00,5.1,���쓌,72.5,0,0,,,,,,,,
2018/3/9,20:00:00,4.3,��,70.4,0,0,,,,,,,,
2018/3/9,21:00:00,3.2,���k��,70.8,0,0,,,,,,,,
2018/3/9,22:00:00,2.5,�k��,68.5,0,0,,,,,,,,
2018/3/9,23:00:00,2,�k��,64.4,0,0,,,,,,,,
2018/3/9,0:00:00,2.1,�k��,58.5,0,0,,,,,,,,
2018/3/10,1:00:00,1.2,�k�k��,60.6,0,0,,,,,,,,
2018/3/10,2:00:00,0.6,�k,60.6,0,0,,,,,,,,
2018/3/10,3:00:00,0.7,�k,59.9,0,0,,,,,,,,
2018/3/10,4:00:00,0.5,�k,61.3,0,0,,,,,,,,
2018/3/10,5:00:00,0.3,�k,63.4,0,0,,,,,,,,
2018/3/10,6:00:00,-1.4,#N/A,67.8,0,0.01,,,,,,,,
2018/3/10,7:00:00,-0.5,#N/A,68.1,0,0.04,,,,,,,,
2018/3/10,8:00:00,0.2,�k,65.6,0,0.12,,,,,,,,
2018/3/10,9:00:00,0.8,�k,59.8,0,0.26,,,,,,,,
2018/3/10,10:00:00,1.8,�k�k��,49.8,0,0.48,,,,,,,,
2018/3/10,11:00:00,1.5,�k�k��,41.6,0,0.69,,,,,,,,
2018/3/10,12:00:00,2.9,�k��,46,0,0.88,,,,,,,,
2018/3/10,13:00:00,2.5,�k��,38.7,0,0.83,,,,,,,,
2018/3/10,14:00:00,0.9,�k,58.5,0,0.72,,,,,,,,
2018/3/10,15:00:00,0.3,�k,63.1,0,0.6,,,,,,,,
2018/3/10,16:00:00,-0.4,#N/A,69.5,0,0.29,,,,,,,,
2018/3/10,17:00:00,-0.6,#N/A,74.3,0,0.07,,,,,,,,
2018/3/10,18:00:00,-0.7,#N/A,75.5,0,0.01,,,,,,,,
2018/3/10,19:00:00,-0.8,#N/A,76.7,0,0,,,,,,,,
2018/3/10,20:00:00,-1.3,#N/A,76.3,0,0,,,,,,,,
2018/3/10,21:00:00,-2.3,#N/A,74.6,0,0,,,,,,,,
2018/3/10,22:00:00,-2.1,#N/A,76.5,0,0,,,,,,,,
2018/3/10,23:00:00,-2.3,#N/A,77.6,0,0,,,,,,,,
2018/3/10,0:00:00,-2.3,#N/A,78.2,0,0,,,,,,,,
2018/3/11,1:00:00,-2.2,#N/A,79.2,0,0,,,,,,,,
2018/3/11,2:00:00,-2.3,#N/A,79.3,0,0,,,,,,,,
2018/3/11,3:00:00,-2.2,#N/A,80.4,0,0,,,,,,,,
2018/3/11,4:00:00,-2.3,#N/A,81.4,0,0,,,,,,,,
2018/3/11,5:00:00,-2.3,#N/A,83.2,0,0,,,,,,,,
2018/3/11,6:00:00,-2.2,#N/A,84.2,0,0.01,,,,,,,,
2018/3/11,7:00:00,-1.7,#N/A,80.9,0,0.05,,,,,,,,
2018/3/11,8:00:00,-1.8,#N/A,80.8,0,0.13,,,,,,,,
2018/3/11,9:00:00,-1.7,#N/A,80,0,0.22,,,,,,,,
2018/3/11,10:00:00,-1.7,#N/A,78.4,0,0.32,,,,,,,,
2018/3/11,11:00:00,-1.4,#N/A,74.5,0,0.36,,,,,,,,
2018/3/11,12:00:00,-1.3,#N/A,72.5,0,0.53,,,,,,,,
2018/3/11,13:00:00,-1.5,#N/A,72,0,0.64,,,,,,,,
2018/3/11,14:00:00,-1.1,#N/A,73.2,0,0.51,,,,,,,,
2018/3/11,15:00:00,-1,#N/A,75.8,0,0.3,,,,,,,,
2018/3/11,16:00:00,-1.2,#N/A,78.9,0,0.15,,,,,,,,
2018/3/11,17:00:00,-1,#N/A,80.9,0,0.07,,,,,,,,
2018/3/11,18:00:00,-1,#N/A,84.9,0,0.01,,,,,,,,
2018/3/11,19:00:00,-1,#N/A,85.5,0,0,,,,,,,,
2018/3/11,20:00:00,-1.5,#N/A,83.8,0,0,,,,,,,,
2018/3/11,21:00:00,-1.6,#N/A,84.9,0,0,,,,,,,,
2018/3/11,22:00:00,-1.6,#N/A,85.7,0,0,,,,,,,,
2018/3/11,23:00:00,-2,#N/A,86.2,0,0,,,,,,,,
2018/3/11,0:00:00,-2.2,#N/A,87.7,0,0,,,,,,,,
2018/3/12,1:00:00,-2.5,#N/A,89.6,0,0,,,,,,,,
2018/3/12,2:00:00,-3.7,#N/A,89.8,0,0,,,,,,,,
2018/3/12,3:00:00,-3.6,#N/A,91.1,0,0,,,,,,,,
2018/3/12,4:00:00,-2.9,#N/A,92.7,0,0,,,,,,,,
2018/3/12,5:00:00,-3,#N/A,91.5,0,0,,,,,,,,
2018/3/12,6:00:00,-3.8,#N/A,88.5,0,0.01,,,,,,,,
2018/3/12,7:00:00,-2.6,#N/A,91.8,0,0.06,,,,,,,,
2018/3/12,8:00:00,-1.7,#N/A,80.7,0,0.16,,,,,,,,
2018/3/12,9:00:00,-0.4,#N/A,72.6,0,0.32,,,,,,,,
2018/3/12,10:00:00,-0.1,#N/A,52.1,0,0.44,,,,,,,,
2018/3/12,11:00:00,0.5,�k,52.6,0,0.57,,,,,,,,
2018/3/12,12:00:00,0.7,�k,53.5,0,0.8,,,,,,,,
2018/3/12,13:00:00,1,�k�k��,57.5,0,0.78,,,,,,,,
2018/3/12,14:00:00,0.3,�k,67.5,0,0.48,,,,,,,,
2018/3/12,15:00:00,0.3,�k,73.3,0,0.24,,,,,,,,
2018/3/12,16:00:00,0.5,�k,74.5,0,0.32,,,,,,,,
2018/3/12,17:00:00,0.3,�k,75.6,0,0.12,,,,,,,,
2018/3/12,18:00:00,-1.5,#N/A,80.4,0,0.02,,,,,,,,
2018/3/12,19:00:00,-3.2,#N/A,82.9,0,0,,,,,,,,
2018/3/12,20:00:00,-4.7,#N/A,85.8,0,0,,,,,,,,
2018/3/12,21:00:00,-4.8,#N/A,88.1,0,0,,,,,,,,
2018/3/12,22:00:00,-5.5,#N/A,88.7,0,0,,,,,,,,
2018/3/12,23:00:00,-5.6,#N/A,91.5,0,0,,,,,,,,
2018/3/12,0:00:00,-5.2,#N/A,92.7,0,0,,,,,,,,
2018/3/13,1:00:00,-6.2,#N/A,93.3,0,0,,,,,,,,
2018/3/13,2:00:00,-6.1,#N/A,93.4,0,0,,,,,,,,
2018/3/13,3:00:00,-7.2,#N/A,92.1,0,0,,,,,,,,
2018/3/13,4:00:00,-8.7,#N/A,91.5,0,0,,,,,,,,
2018/3/13,5:00:00,-8.2,#N/A,91.4,0,0,,,,,,,,
2018/3/13,6:00:00,-7.9,#N/A,94.9,0,0.01,,,,,,,,
2018/3/13,7:00:00,-6.3,#N/A,96.8,0,0.05,,,,,,,,
2018/3/13,8:00:00,-3.8,#N/A,96.7,0,0.12,,,,,,,,
2018/3/13,9:00:00,-2.2,#N/A,91.5,0,0.19,,,,,,,,
2018/3/13,10:00:00,1,�k�k��,68.5,0,0.42,,,,,,,,
2018/3/13,11:00:00,3.1,���k��,62.9,0,0.72,,,,,,,,
2018/3/13,12:00:00,3.2,���k��,61.7,0,0.76,,,,,,,,
2018/3/13,13:00:00,3.6,���k��,61.5,0,0.74,,,,,,,,
2018/3/13,14:00:00,4.1,��,63.4,0,0.63,,,,,,,,
2018/3/13,15:00:00,3.7,���k��,65.6,0,0.45,,,,,,,,
2018/3/13,16:00:00,3.7,���k��,68.1,0,0.22,,,,,,,,
2018/3/13,17:00:00,3.2,���k��,74.7,0,0.16,,,,,,,,
2018/3/13,18:00:00,2.3,�k��,77.8,0,0.01,,,,,,,,
2018/3/13,19:00:00,2,�k��,79,0,0,,,,,,,,
2018/3/13,20:00:00,4.4,��,85.9,0,0,,,,,,,,
2018/3/13,21:00:00,4.9,��,78.2,0,0,,,,,,,,
2018/3/13,22:00:00,4.7,��,76.4,0,0,,,,,,,,
2018/3/13,23:00:00,6.1,�쓌,72.5,0,0,,,,,,,,
2018/3/13,0:00:00,7.5,��쓌,71.5,0,0,,,,,,,,
2018/3/14,1:00:00,7.3,��쓌,69.2,0,0,,,,,,,,
2018/3/14,2:00:00,6.9,�쓌,70.5,0,0,,,,,,,,
2018/3/14,3:00:00,7.2,��쓌,70.4,0,0,,,,,,,,
2018/3/14,4:00:00,7,��쓌,70.8,0,0,,,,,,,,
2018/3/14,5:00:00,5.6,���쓌,73.2,0,0,,,,,,,,
2018/3/14,6:00:00,4.5,��,74.4,0,0.01,,,,,,,,
2018/3/14,7:00:00,1.5,�k�k��,76.6,0,0.09,,,,,,,,
2018/3/14,8:00:00,5.3,���쓌,56.9,0,0.29,,,,,,,,
2018/3/14,9:00:00,6.3,�쓌,53.2,0,0.52,,,,,,,,
2018/3/14,10:00:00,5.5,���쓌,38.8,0,0.64,,,,,,,,
2018/3/14,11:00:00,8,��,37.4,0,0.75,,,,,,,,
2018/3/14,12:00:00,8.2,��,45.1,0,0.87,,,,,,,,
2018/3/14,13:00:00,7.4,��쓌,44.5,0,0.79,,,,,,,,
2018/3/14,14:00:00,7.7,��쓌,40.3,0,0.73,,,,,,,,
2018/3/14,15:00:00,7.8,��쓌,42,0,0.59,,,,,,,,
2018/3/14,16:00:00,3.7,���k��,68.6,0,0.4,,,,,,,,
2018/3/14,17:00:00,2.2,�k��,74.3,0,0.16,,,,,,,,
2018/3/14,18:00:00,1.7,�k�k��,78.5,0,0.02,,,,,,,,
2018/3/14,19:00:00,1.8,�k�k��,80.7,0,0,,,,,,,,
2018/3/14,20:00:00,1.3,�k�k��,79.4,0,0,,,,,,,,
2018/3/14,21:00:00,1.2,�k�k��,82.3,0,0,,,,,,,,
2018/3/14,22:00:00,1.4,�k�k��,87.8,0,0,,,,,,,,
2018/3/14,23:00:00,1,�k�k��,87.7,0,0,,,,,,,,
2018/3/14,0:00:00,1.1,�k�k��,88.8,0,0,,,,,,,,
2018/3/15,1:00:00,1.2,�k�k��,89.3,0,0,,,,,,,,
2018/3/15,2:00:00,1.1,�k�k��,88.8,0,0,,,,,,,,
2018/3/15,3:00:00,1,�k�k��,89.1,0,0,,,,,,,,
2018/3/15,4:00:00,0.9,�k,90.9,0,0,,,,,,,,
2018/3/15,5:00:00,0.9,�k,91.3,0,0,,,,,,,,
2018/3/15,6:00:00,0.9,�k,91.7,0,0.01,,,,,,,,
2018/3/15,7:00:00,1,�k�k��,90.6,0,0.05,,,,,,,,
2018/3/15,8:00:00,0.9,�k,84.2,0,0.12,,,,,,,,
2018/3/15,9:00:00,1.2,�k�k��,82.1,0,0.22,,,,,,,,
2018/3/15,10:00:00,2.6,�k��,71,0,0.34,,,,,,,,
2018/3/15,11:00:00,3.3,���k��,70.3,0,0.43,,,,,,,,
2018/3/15,12:00:00,5,���쓌,54,0,0.74,,,,,,,,
2018/3/15,13:00:00,3.7,���k��,59.7,0,0.68,,,,,,,,
2018/3/15,14:00:00,4.1,��,63.9,0,0.72,,,,,,,,
2018/3/15,15:00:00,3.1,���k��,63.4,0,0.55,,,,,,,,
2018/3/15,16:00:00,2.6,�k��,72.8,0,0.15,,,,,,,,
2018/3/15,17:00:00,3.2,���k��,83.2,0,0.09,,,,,,,,
2018/3/15,18:00:00,5.2,���쓌,87.9,0,0.01,,,,,,,,
2018/3/15,19:00:00,5.6,���쓌,86.7,0,0,,,,,,,,
2018/3/15,20:00:00,9.4,��쐼,81,0,0,,,,,,,,
2018/3/15,21:00:00,10.3,�쐼,71.8,0,0,,,,,,,,
2018/3/15,22:00:00,9.4,��쐼,71.6,0,0,,,,,,,,
2018/3/15,23:00:00,10.2,�쐼,74.7,0,0,,,,,,,,
2018/3/15,0:00:00,5.7,���쓌,77,0,0,,,,,,,,
2018/3/16,1:00:00,4.5,��,75.1,0,0,,,,,,,,
2018/3/16,2:00:00,4,��,70.9,0,0,,,,,,,,
2018/3/16,3:00:00,2.4,�k��,76.7,0,0,,,,,,,,
2018/3/16,4:00:00,1.5,�k�k��,81.4,0,0,,,,,,,,
2018/3/16,5:00:00,1.3,�k�k��,82.9,0,0,,,,,,,,
2018/3/16,6:00:00,1,�k�k��,83.1,0,0.01,,,,,,,,
2018/3/16,7:00:00,1.8,�k�k��,80.7,0,0.04,,,,,,,,
2018/3/16,8:00:00,2.4,�k��,68.2,0,0.16,,,,,,,,
2018/3/16,9:00:00,3.8,���k��,42.7,0,0.48,,,,,,,,
2018/3/16,10:00:00,3.8,���k��,38.6,0,0.67,,,,,,,,
2018/3/16,11:00:00,2.8,�k��,40,0,0.92,,,,,,,,
2018/3/16,12:00:00,2.8,�k��,37.9,0,0.88,,,,,,,,
2018/3/16,13:00:00,2,�k��,41.5,0,0.57,,,,,,,,
2018/3/16,14:00:00,1.7,�k�k��,42.9,0,0.46,,,,,,,,
2018/3/16,15:00:00,1,�k�k��,45.4,0,0.3,,,,,,,,
2018/3/16,16:00:00,0.5,�k,41.8,0,0.15,,,,,,,,
2018/3/16,17:00:00,-0.6,#N/A,44.7,0,0.08,,,,,,,,
2018/3/16,18:00:00,-1.2,#N/A,46.6,0,0.01,,,,,,,,
2018/3/16,19:00:00,-1.9,#N/A,51.8,0,0,,,,,,,,
2018/3/16,20:00:00,-2.5,#N/A,49.4,0,0,,,,,,,,
2018/3/16,21:00:00,-2.9,#N/A,50.7,0,0,,,,,,,,
2018/3/16,22:00:00,-3.5,#N/A,50.6,0,0,,,,,,,,
2018/3/16,23:00:00,-4.3,#N/A,52.6,0,0,,,,,,,,
2018/3/16,0:00:00,-4.8,#N/A,54.2,0,0,,,,,,,,
2018/3/17,1:00:00,-5.1,#N/A,58.7,0,0,,,,,,,,
2018/3/17,2:00:00,-5.3,#N/A,66.5,0,0,,,,,,,,
2018/3/17,3:00:00,-5.3,#N/A,66.1,0,0,,,,,,,,
2018/3/17,4:00:00,-6.6,#N/A,68.5,0,0,,,,,,,,
2018/3/17,5:00:00,-10.2,#N/A,69.5,0,0,,,,,,,,
2018/3/17,6:00:00,-9.9,#N/A,73.9,0,0.02,,,,,,,,
2018/3/17,7:00:00,-7.3,#N/A,72.7,0,0.18,,,,,,,,
2018/3/17,8:00:00,-3.8,#N/A,46.1,0,0.4,,,,,,,,
2018/3/17,9:00:00,-2.7,#N/A,34,0,0.61,,,,,,,,
2018/3/17,10:00:00,-1.7,#N/A,40.2,0,0.75,,,,,,,,
2018/3/17,11:00:00,-1.1,#N/A,37,0,0.85,,,,,,,,
2018/3/17,12:00:00,-0.5,#N/A,38.1,0,0.89,,,,,,,,
2018/3/17,13:00:00,1.3,�k�k��,41.1,0,0.86,,,,,,,,
2018/3/17,14:00:00,1.7,�k�k��,36.1,0,0.76,,,,,,,,
2018/3/17,15:00:00,2.2,�k��,39.9,0,0.63,,,,,,,,
2018/3/17,16:00:00,2,�k��,44.9,0,0.44,,,,,,,,
2018/3/17,17:00:00,0.5,�k,52.3,0,0.21,,,,,,,,
2018/3/17,18:00:00,-1.2,#N/A,58.2,0,0.03,,,,,,,,
2018/3/17,19:00:00,-1.6,#N/A,62.7,0,0,,,,,,,,
2018/3/17,20:00:00,-1.4,#N/A,60.9,0,0,,,,,,,,
2018/3/17,21:00:00,-4.9,#N/A,60.4,0,0,,,,,,,,
2018/3/17,22:00:00,-2.2,#N/A,67.3,0,0,,,,,,,,
2018/3/17,23:00:00,-7.9,#N/A,65.8,0,0,,,,,,,,
2018/3/17,0:00:00,-9.4,#N/A,78.9,0,0,,,,,,,,
2018/3/18,1:00:00,-8.6,#N/A,82.9,0,0,,,,,,,,
2018/3/18,2:00:00,-8.3,#N/A,85.2,0,0,,,,,,,,
2018/3/18,3:00:00,-9.4,#N/A,86.2,0,0,,,,,,,,
2018/3/18,4:00:00,-10,#N/A,86.7,0,0,,,,,,,,
2018/3/18,5:00:00,-9.8,#N/A,88.3,0,0.01,,,,,,,,
2018/3/18,6:00:00,-1.5,#N/A,81,0,0.02,,,,,,,,
2018/3/18,7:00:00,-1.6,#N/A,52.4,0,0.18,,,,,,,,
2018/3/18,8:00:00,2.5,�k��,37.4,0,0.4,,,,,,,,
2018/3/18,9:00:00,3.4,���k��,33.2,0,0.61,,,,,,,,
2018/3/18,10:00:00,3.6,���k��,36.6,0,0.75,,,,,,,,
2018/3/18,11:00:00,4,��,37.9,0,0.85,,,,,,,,
2018/3/18,12:00:00,4.5,��,34.8,0,0.89,,,,,,,,
2018/3/18,13:00:00,4.7,��,38.3,0,0.87,,,,,,,,
2018/3/18,14:00:00,5.2,���쓌,38.1,0,0.77,,,,,,,,
2018/3/18,15:00:00,5.4,���쓌,40.1,0,0.63,,,,,,,,
2018/3/18,16:00:00,5.5,���쓌,45.2,0,0.44,,,,,,,,
2018/3/18,17:00:00,4.9,��,49,0,0.2,,,,,,,,
2018/3/18,18:00:00,4.2,��,61.2,0,0.02,,,,,,,,
2018/3/18,19:00:00,4.1,��,63.8,0,0,,,,,,,,
2018/3/18,20:00:00,3.1,���k��,80.2,0,0,,,,,,,,
2018/3/18,21:00:00,2.3,�k��,86.9,0,0,,,,,,,,
2018/3/18,22:00:00,2.6,�k��,82.3,0,0,,,,,,,,
2018/3/18,23:00:00,3.2,���k��,78,0,0,,,,,,,,
2018/3/18,0:00:00,3.3,���k��,73.6,0,0,,,,,,,,
2018/3/19,1:00:00,3.1,���k��,72,0,0,,,,,,,,
2018/3/19,2:00:00,4.2,��,71.6,0,0,,,,,,,,
2018/3/19,3:00:00,3.6,���k��,71.9,0,0,,,,,,,,
2018/3/19,4:00:00,5,���쓌,73.3,0,0,,,,,,,,
2018/3/19,5:00:00,4.9,��,68.2,0,0,,,,,,,,
2018/3/19,6:00:00,4.9,��,71,0,0.01,,,,,,,,
2018/3/19,7:00:00,5.7,���쓌,63.9,0,0.12,,,,,,,,
2018/3/19,8:00:00,7.1,��쓌,45.7,0,0.46,,,,,,,,
2018/3/19,9:00:00,7.6,��쓌,42.5,0,0.48,,,,,,,,
2018/3/19,10:00:00,8,��,39.3,0,0.5,,,,,,,,
2018/3/19,11:00:00,12,��,6.9,7.4,36.1,0,0.82,13,���k��,13.6,33,,
2018/3/19,12:00:00,12,��,8.3,6.7,44.9,0,0.76,12,��,11.6,49,,
2018/3/19,13:00:00,13,���k��,8.5,6.1,42.4,0,0.72,13,���k��,13.5,36,,
2018/3/19,14:00:00,13,���k��,8.1,5.8,37.7,0,0.75,13,���k��,16.4,23,,
2018/3/19,15:00:00,13,���k��,7,5.5,37.1,0,0.63,14,�k��,17,22,,
2018/3/19,16:00:00,14,�k��,7,4.1,39,0,0.45,14,�k��,16.9,14,,
2018/3/19,17:00:00,14,�k��,6.9,1.3,46.6,0,0.22,13,���k��,12.1,50,,
2018/3/19,18:00:00,15,�k�k��,6.2,-1,51.8,0,0.03,16,�k,13.7,27,,
2018/3/19,19:00:00,15,�k�k��,5.9,-1.3,43.7,0,0,15,�k�k��,12.3,54,,
2018/3/19,20:00:00,15,�k�k��,5.1,-1.6,44.8,0,0,15,�k�k��,12,12,,
2018/3/19,21:00:00,14,�k��,6.1,-1.7,44.7,0,0,15,�k�k��,10.6,53,,
2018/3/19,22:00:00,16,�k,2.3,-2.3,47.6,0,0,14,�k��,9,21,,
2018/3/19,23:00:00,13,���k��,0.9,-1.8,46.2,0,0,16,�k,4.9,19,,
2018/3/19,0:00:00,14,�k��,1.6,-2.7,46.8,0,0,13,���k��,4.8,28,,
2018/3/20,1:00:00,14,�k��,0.6,-6,51.5,0,0,14,�k��,2.8,35,,
2018/3/20,2:00:00,13,���k��,1.6,-5.7,63.5,0,0,12,��,3.4,49,,
2018/3/20,3:00:00,14,�k��,2,-6.6,61.9,0,0,14,�k��,3.9,31,,
2018/3/20,4:00:00,15,�k�k��,2.7,-4,60.4,0,0,15,�k�k��,4.6,58,,
2018/3/20,5:00:00,15,�k�k��,2.5,-4.2,57.5,0,0.01,15,�k�k��,4.9,40,,
2018/3/20,6:00:00,15,�k�k��,3,-4.1,58.2,0,0.02,16,�k,7.2,43,,
2018/3/20,7:00:00,15,�k�k��,3.3,-3.3,53.6,0,0.18,15,�k�k��,6.1,57,,
2018/3/20,8:00:00,14,�k��,4.3,-1.6,43.6,0,0.41,15,�k�k��,8.2,27,,
2018/3/20,9:00:00,14,�k��,5,-0.5,34.2,0,0.63,15,�k�k��,8.3,29,,
2018/3/20,10:00:00,15,�k�k��,3.9,0.2,33.6,0,0.77,13,���k��,9.2,38,,
2018/3/20,11:00:00,15,�k�k��,4,0.7,27.2,0,0.87,15,�k�k��,7.5,0,,
2018/3/20,12:00:00,15,�k�k��,4.3,1.5,30.3,0,0.92,14,�k��,8,24,,
2018/3/20,13:00:00,14,�k��,3.7,1.6,25.7,0,0.89,14,�k��,7.6,0,,
2018/3/20,14:00:00,7,��쓌,4.6,0.3,38.1,0,0.66,6,�쓌,6.8,54,,
2018/3/20,15:00:00,7,��쓌,4.2,0.6,44.8,0,0.42,8,��,6.9,58,,
2018/3/20,16:00:00,7,��쓌,2.5,0.5,45.1,0,0.42,7,��쓌,6.6,0,,
2018/3/20,17:00:00,3,���k��,2.6,-0.8,51.1,0,0.17,7,��쓌,4.9,1,,
2018/3/20,18:00:00,3,���k��,3,-2,64.7,0,0.02,3,���k��,5.3,47,,
2018/3/20,19:00:00,2,�k��,2.4,-3,79.8,0,0,2,�k��,4.6,14,,
2018/3/20,20:00:00,2,�k��,1.9,-3.6,81.9,0,0,2,�k��,3.3,1,,
2018/3/20,21:00:00,2,�k��,1.6,-4.1,84.3,0,0,2,�k��,2.8,21,,
2018/3/20,22:00:00,13,���k��,0.3,-3.4,85.9,0,0,16,�k,3.7,17,,
2018/3/20,23:00:00,16,�k,0.6,-5.2,83.3,0,0,14,�k��,2.2,17,,
2018/3/20,0:00:00,14,�k��,1.3,-6.1,84.9,0,0,14,�k��,2.1,46,,
2018/3/21,1:00:00,13,���k��,1.9,-6.8,85.4,0,0,14,�k��,2.9,47,,
2018/3/21,2:00:00,13,���k��,1.8,-8.2,83.7,0,0,13,���k��,3.5,44,,
2018/3/21,3:00:00,12,��,2.1,-10.4,85.3,0,0,13,���k��,3,1,,
2018/3/21,4:00:00,13,���k��,1.6,-9,87.2,0,0,14,�k��,3.2,55,,
2018/3/21,5:00:00,13,���k��,1.9,-9.5,87.4,0,0.01,13,���k��,2.5,51,,
2018/3/21,6:00:00,14,�k��,0.6,-8,91.3,0,0.03,14,�k��,2.5,26,,
2018/3/21,7:00:00,14,�k��,1.7,-5.3,65.4,0,0.21,13,���k��,2.8,10,,
2018/3/21,8:00:00,14,�k��,0.4,-3,58.8,0,0.36,13,���k��,2.8,15,,
2018/3/21,9:00:00,-1.1,#N/A,52.9,0,0.61,,,,,,,,
2018/3/21,10:00:00,4,��,2.3,0.3,53.5,0,0.77,4,��,3.8,49,,